Mobile, AL

12:19 PM CST on February 07, 2016 (GMT -0600)
Mobile Downtown

Weather History for KBFM - May, 2013

Change the Weather History Date:

Friday, May 17, 2013

  Actual Average Record
Temperature  
Mean Temperature 75 °F -  
Max Temperature 80 °F 81 °F 91 °F (1998)
Min Temperature 71 °F 62 °F 51 °F (2011)
Cooling Degree Days 10    
Growing Degree Days 25 (Base 50)    
Moisture  
Dew Point 71 °F    
Average Humidity 88    
Maximum Humidity 94    
Minimum Humidity 78    
Precipitation  
Precipitation 0.00 in - - ()
Sea Level Pressure  
Sea Level Pressure 30.04 in    
Wind  
Wind Speed 9 mph (SSE)    
Max Wind Speed 15 mph    
Max Gust Speed 21 mph    
Visibility 10 miles    
Events      
Averages and records for this station are not official NWS values.
T = Trace of Precipitation, MM = Missing Value Source: NWS Daily Summary

Daily Weather History Graph

Daily Weather History Graph

Search for Another Location

Airport or City:

Trip Planner

Search our weather history database for the weather conditions in past years. The results will help you decide how hot, cold, wet, or windy it might be!

Date:

Astronomy

May. 17, 2013 Rise Set
Actual Time 5:56 AM CDT 7:41 PM CDT
Civil Twilight 5:29 AM CDT 8:08 PM CDT
Nautical Twilight 4:57 AM CDT 8:39 PM CDT
Astronomical Twilight 4:24 AM CDT 9:13 PM CDT
Moon 12:16 PM CDT (5/17) 12:44 AM CDT (5/17)
Length of Visible Light 14h 38m
Length of Day
13h 45m
Waxing Crescent, 45% of the Moon is Illuminated
May 17
Waxing Crescent
May 17
First Quarter
May 24
Full
May 31
Last Quarter
Jun 8
New

Hourly Weather History & Observations

Time (CDT) Temp. Dew Point Humidity Pressure Visibility Wind Dir Wind Speed Gust Speed Precip Events Conditions
12:53 AM 72.0 °F 66.9 °F 84% 30.01 in 10.0 mi SSE 8.1 mph - N/A   Clear
1:37 AM 71.6 °F 69.8 °F 94% 30.01 in 10.0 mi SSE 8.1 mph - N/A   Mostly Cloudy
1:53 AM 72.0 °F 69.1 °F 91% 30.01 in 10.0 mi SSE 9.2 mph - N/A   Mostly Cloudy
2:23 AM 71.6 °F 69.8 °F 94% 30.01 in 10.0 mi SSE 8.1 mph - N/A   Mostly Cloudy
2:53 AM 72.0 °F 70.0 °F 93% 30.01 in 10.0 mi South 5.8 mph - N/A   Mostly Cloudy
3:24 AM 71.6 °F 69.8 °F 94% 30.01 in 10.0 mi South 6.9 mph - N/A   Mostly Cloudy
3:45 AM 71.6 °F 68.0 °F 88% 30.01 in 10.0 mi South 6.9 mph - N/A   Scattered Clouds
3:53 AM 72.0 °F 68.0 °F 87% 30.01 in 10.0 mi South 8.1 mph - N/A   Scattered Clouds
4:53 AM 72.0 °F 68.0 °F 87% 30.01 in 10.0 mi South 8.1 mph - N/A   Scattered Clouds
5:53 AM 73.0 °F 69.1 °F 87% 30.03 in 10.0 mi SSE 5.8 mph - N/A   Overcast
6:12 AM 71.6 °F 69.8 °F 94% 30.04 in 10.0 mi SSE 4.6 mph - N/A   Overcast
6:31 AM 73.4 °F 69.8 °F 88% 30.05 in 10.0 mi SSE 5.8 mph - N/A   Overcast
7:21 AM 73.4 °F 69.8 °F 88% 30.05 in 10.0 mi SSE 6.9 mph - N/A   Mostly Cloudy
7:53 AM 73.9 °F 71.1 °F 91% 30.05 in 10.0 mi SE 10.4 mph - N/A   Mostly Cloudy
8:53 AM 73.9 °F 71.1 °F 91% 30.07 in 10.0 mi SSE 6.9 mph - N/A   Mostly Cloudy
9:53 AM 75.0 °F 71.1 °F 87% 30.07 in 10.0 mi SSE 12.7 mph - N/A   Mostly Cloudy
10:53 AM 75.0 °F 71.1 °F 87% 30.08 in 10.0 mi SSE 9.2 mph - N/A   Mostly Cloudy
11:04 AM 75.2 °F 71.6 °F 89% 30.08 in 10.0 mi SSE 9.2 mph - N/A   Mostly Cloudy
11:53 AM 78.1 °F 72.0 °F 81% 30.08 in 10.0 mi South 9.2 mph - N/A   Mostly Cloudy
12:53 PM 78.1 °F 72.0 °F 81% 30.07 in 10.0 mi SSE 12.7 mph - N/A   Mostly Cloudy
1:53 PM 79.0 °F 73.0 °F 82% 30.07 in 10.0 mi SSE 15.0 mph 19.6 mph N/A   Mostly Cloudy
3:53 PM 79.0 °F 73.0 °F 82% 30.05 in 10.0 mi SSE 13.8 mph - N/A   Partly Cloudy
4:49 PM 78.8 °F 71.6 °F 78% 30.03 in 10.0 mi SSE 11.5 mph 20.7 mph N/A   Partly Cloudy
4:53 PM 78.1 °F 72.0 °F 81% 30.03 in 10.0 mi SSE 12.7 mph 20.7 mph N/A   Partly Cloudy
5:53 PM 78.1 °F 72.0 °F 81% 30.02 in 10.0 mi South 10.4 mph 16.1 mph N/A   Partly Cloudy
6:53 PM 75.0 °F 72.0 °F 90% 30.02 in 10.0 mi South 11.5 mph 17.3 mph N/A   Scattered Clouds
7:38 PM 75.2 °F 71.6 °F 89% 30.03 in 10.0 mi South 8.1 mph - N/A   Mostly Cloudy
7:53 PM 75.0 °F 72.0 °F 90% 30.03 in 10.0 mi South 9.2 mph - N/A   Mostly Cloudy
8:53 PM 75.0 °F 72.0 °F 90% 30.05 in 10.0 mi SSE 9.2 mph - N/A   Overcast
9:00 PM 75.2 °F 71.6 °F 89% 30.05 in 10.0 mi South 8.1 mph - N/A   Mostly Cloudy
9:53 PM 75.0 °F 71.1 °F 87% 30.06 in 10.0 mi South 10.4 mph 16.1 mph N/A   Mostly Cloudy
10:01 PM 75.2 °F 71.6 °F 89% 30.06 in 10.0 mi Variable 6.9 mph - N/A   Mostly Cloudy
10:53 PM 73.9 °F 71.1 °F 91% 30.06 in 10.0 mi South 8.1 mph - N/A   Mostly Cloudy
11:25 PM 73.4 °F 71.6 °F 94% 30.06 in 10.0 mi SSE 8.1 mph - N/A   Mostly Cloudy
11:50 PM 73.4 °F 71.6 °F 94% 30.07 in 10.0 mi Variable 6.9 mph - N/A   Scattered Clouds
11:53 PM 73.9 °F 71.1 °F 91% 30.07 in 10.0 mi South 9.2 mph - N/A   Mostly Cloudy